owner,sensor,date,latitude,longitude,vertical_datum,wind_speed,wind_to_direction,wind_speed_of_gust,qcFlag 
TCOON,ioos:station:TCOON:518:1,2008-09-01T00:00:00Z,29.5150,-94.5133,0.0,0.8,128.0,1.1,'11111222,11111222,11111222' 
TCOON,ioos:station:TCOON:518:1,2008-09-01T01:00:00Z,29.5150,-94.5133,0.0,0.0,192.0,99.0,'11111222,11111222,11144222' 
TCOON,ioos:station:TCOON:518:1,2008-09-01T03:00:00Z,29.5150,-94.5133,0.0,4.9,22.0,5.8,'11111222,11111222,11111222' 
TCOON,ioos:station:TCOON:518:1,2008-09-01T04:00:00Z,29.5150,-94.5133,0.0,5.9,30.0,7.0,'11111222,11111222,11111222' 
TCOON,ioos:station:TCOON:518:1,2008-09-01T05:00:00Z,29.5150,-94.5133,0.0,5.1,30.0,6.2,'11111222,11111222,11111222' 
TCOON,ioos:station:TCOON:518:1,2008-09-01T06:00:00Z,29.5150,-94.5133,0.0,4.1,26.0,4.9,'11111222,11111222,11111222' 
TCOON,ioos:station:TCOON:518:1,2008-09-01T07:00:00Z,29.5150,-94.5133,0.0,5.2,9.0,6.1,'11111222,11111222,11111222' 
TCOON,ioos:station:TCOON:518:1,2008-09-01T08:00:00Z,29.5150,-94.5133,0.0,5.8,5.0,6.7,'11111222,11111222,11111222' 
TCOON,ioos:station:TCOON:518:1,2008-09-01T09:00:00Z,29.5150,-94.5133,0.0,5.3,358.0,6.1,'11111222,11111222,11111222' 
TCOON,ioos:station:TCOON:518:1,2008-09-01T10:00:00Z,29.5150,-94.5133,0.0,5.7,357.0,6.3,'11111222,11111222,11111222' 
TCOON,ioos:station:TCOON:518:1,2008-09-01T11:00:00Z,29.5150,-94.5133,0.0,6.4,352.0,7.7,'11111222,11111222,11111222' 
TCOON,ioos:station:TCOON:518:1,2008-09-01T12:00:00Z,29.5150,-94.5133,0.0,6.5,341.0,7.7,'11111222,11111222,11111222' 
TCOON,ioos:station:TCOON:518:1,2008-09-01T13:00:00Z,29.5150,-94.5133,0.0,7.7,346.0,8.8,'11111222,11111222,11111222' 
TCOON,ioos:station:TCOON:518:1,2008-09-01T14:00:00Z,29.5150,-94.5133,0.0,7.6,338.0,9.2,'11111222,11111222,11111222' 
TCOON,ioos:station:TCOON:518:1,2008-09-01T15:00:00Z,29.5150,-94.5133,0.0,8.2,339.0,9.9,'11111222,11111222,11111222' 
TCOON,ioos:station:TCOON:518:1,2008-09-01T16:00:00Z,29.5150,-94.5133,0.0,8.9,340.0,11.1,'11111222,11111222,11111222' 
TCOON,ioos:station:TCOON:518:1,2008-09-01T17:00:00Z,29.5150,-94.5133,0.0,10.7,338.0,13.2,'11111222,11111222,11111222' 
TCOON,ioos:station:TCOON:518:1,2008-09-01T18:00:00Z,29.5150,-94.5133,0.0,9.5,329.0,11.7,'11111222,11111222,11111222' 
TCOON,ioos:station:TCOON:518:1,2008-09-01T19:00:00Z,29.5150,-94.5133,0.0,9.9,326.0,12.2,'11111222,11111222,11111222' 
TCOON,ioos:station:TCOON:518:1,2008-09-01T20:00:00Z,29.5150,-94.5133,0.0,8.8,327.0,11.2,'11111222,11111222,11111222' 
TCOON,ioos:station:TCOON:518:1,2008-09-01T21:00:00Z,29.5150,-94.5133,0.0,10.3,317.0,12.3,'11111222,11111222,11111222' 
TCOON,ioos:station:TCOON:518:1,2008-09-01T22:00:00Z,29.5150,-94.5133,0.0,11.4,312.0,13.4,'11111222,11111222,11111222' 
TCOON,ioos:station:TCOON:518:1,2008-09-01T23:00:00Z,29.5150,-94.5133,0.0,13.0,340.0,16.4,'11111222,11111222,11111222' 
TCOON,ioos:station:TCOON:518:1,2008-09-02T00:00:00Z,29.5150,-94.5133,0.0,12.5,309.0,15.6,'11111222,11111222,11111222' 
TCOON,ioos:station:TCOON:518:1,2008-09-02T01:00:00Z,29.5150,-94.5133,0.0,9.2,300.0,11.5,'11111222,11111222,11111222' 
TCOON,ioos:station:TCOON:518:1,2008-09-02T02:00:00Z,29.5150,-94.5133,0.0,10.1,296.0,21.1,'11111222,11111222,11111222' 
TCOON,ioos:station:TCOON:518:1,2008-09-02T03:00:00Z,29.5150,-94.5133,0.0,10.0,292.0,12.8,'11111222,11111222,11111222' 
TCOON,ioos:station:TCOON:518:1,2008-09-02T04:00:00Z,29.5150,-94.5133,0.0,7.6,274.0,10.6,'11111222,11111222,11111222' 
TCOON,ioos:station:TCOON:518:1,2008-09-02T05:00:00Z,29.5150,-94.5133,0.0,8.3,276.0,10.2,'11111222,11111222,11111222' 
TCOON,ioos:station:TCOON:518:1,2008-09-02T06:00:00Z,29.5150,-94.5133,0.0,7.5,269.0,99.0,'11111222,11111222,11144222' 
TCOON,ioos:station:TCOON:518:1,2008-09-02T07:00:00Z,29.5150,-94.5133,0.0,7.3,266.0,10.7,'11111222,11111222,11111222' 
TCOON,ioos:station:TCOON:518:1,2008-09-02T08:00:00Z,29.5150,-94.5133,0.0,5.7,252.0,7.6,'11111222,11111222,11111222' 
TCOON,ioos:station:TCOON:518:1,2008-09-02T09:00:00Z,29.5150,-94.5133,0.0,8.4,255.0,10.2,'11111222,11111222,11111222' 
TCOON,ioos:station:TCOON:518:1,2008-09-02T10:00:00Z,29.5150,-94.5133,0.0,7.4,256.0,9.9,'11111222,11111222,11111222' 
TCOON,ioos:station:TCOON:518:1,2008-09-02T11:00:00Z,29.5150,-94.5133,0.0,5.9,241.0,9.1,'11111222,11111222,11111222' 
TCOON,ioos:station:TCOON:518:1,2008-09-02T12:00:00Z,29.5150,-94.5133,0.0,5.2,244.0,7.7,'11111222,11111222,11111222' 
TCOON,ioos:station:TCOON:518:1,2008-09-02T13:00:00Z,29.5150,-94.5133,0.0,6.1,244.0,8.9,'11111222,11111222,11111222' 
TCOON,ioos:station:TCOON:518:1,2008-09-02T14:00:00Z,29.5150,-94.5133,0.0,6.9,246.0,9.9,'11111222,11111222,11111222' 
TCOON,ioos:station:TCOON:518:1,2008-09-02T15:00:00Z,29.5150,-94.5133,0.0,7.4,243.0,9.0,'11111222,11111222,11111222' 
TCOON,ioos:station:TCOON:518:1,2008-09-02T16:00:00Z,29.5150,-94.5133,0.0,6.3,248.0,9.3,'11111222,11111222,11111222' 
TCOON,ioos:station:TCOON:518:1,2008-09-02T17:00:00Z,29.5150,-94.5133,0.0,6.6,245.0,10.6,'11111222,11111222,11111222' 
TCOON,ioos:station:TCOON:518:1,2008-09-02T18:00:00Z,29.5150,-94.5133,0.0,6.0,243.0,9.5,'11111222,11111222,11111222' 
TCOON,ioos:station:TCOON:518:1,2008-09-02T19:00:00Z,29.5150,-94.5133,0.0,5.8,246.0,8.7,'11111222,11111222,11111222' 
TCOON,ioos:station:TCOON:518:1,2008-09-02T20:00:00Z,29.5150,-94.5133,0.0,5.3,204.0,8.2,'11111222,11111222,11111222' 
TCOON,ioos:station:TCOON:518:1,2008-09-02T21:00:00Z,29.5150,-94.5133,0.0,6.2,204.0,99.0,'11111222,11111222,11144222' 
TCOON,ioos:station:TCOON:518:1,2008-09-02T22:00:00Z,29.5150,-94.5133,0.0,4.9,205.0,8.8,'11111222,11111222,11111222' 
TCOON,ioos:station:TCOON:518:1,2008-09-02T23:00:00Z,29.5150,-94.5133,0.0,4.6,201.0,9.7,'11111222,11111222,11111222' 
TCOON,ioos:station:TCOON:518:1,2008-09-03T00:00:00Z,29.5150,-94.5133,0.0,5.6,203.0,8.2,'11111222,11111222,11111222' 
TCOON,ioos:station:TCOON:518:1,2008-09-03T01:00:00Z,29.5150,-94.5133,0.0,5.0,205.0,9.1,'11111222,11111222,11111222' 
TCOON,ioos:station:TCOON:518:1,2008-09-03T02:00:00Z,29.5150,-94.5133,0.0,4.0,205.0,9.4,'11111222,11111222,11111222' 
TCOON,ioos:station:TCOON:518:1,2008-09-03T03:00:00Z,29.5150,-94.5133,0.0,5.0,199.0,8.5,'11111222,11111222,11111222' 
TCOON,ioos:station:TCOON:518:1,2008-09-03T04:00:00Z,29.5150,-94.5133,0.0,4.4,205.0,7.3,'11111222,11111222,11111222' 
TCOON,ioos:station:TCOON:518:1,2008-09-03T05:00:00Z,29.5150,-94.5133,0.0,7.4,221.0,9.5,'11111222,11111222,11111222' 
TCOON,ioos:station:TCOON:518:1,2008-09-03T06:00:00Z,29.5150,-94.5133,0.0,4.1,207.0,7.6,'11111222,11111222,11111222' 
TCOON,ioos:station:TCOON:518:1,2008-09-03T07:00:00Z,29.5150,-94.5133,0.0,5.0,212.0,8.9,'11111222,11111222,11111222' 
TCOON,ioos:station:TCOON:518:1,2008-09-03T08:00:00Z,29.5150,-94.5133,0.0,7.3,219.0,10.5,'11111222,11111222,11111222' 
TCOON,ioos:station:TCOON:518:1,2008-09-03T09:00:00Z,29.5150,-94.5133,0.0,8.3,221.0,12.0,'11111222,11111222,11111222' 
TCOON,ioos:station:TCOON:518:1,2008-09-03T10:00:00Z,29.5150,-94.5133,0.0,6.9,225.0,9.7,'11111222,11111222,11111222' 
TCOON,ioos:station:TCOON:518:1,2008-09-03T11:00:00Z,29.5150,-94.5133,0.0,5.5,235.0,8.7,'11111222,11111222,11111222' 
TCOON,ioos:station:TCOON:518:1,2008-09-03T12:00:00Z,29.5150,-94.5133,0.0,5.5,238.0,8.5,'11111222,11111222,11111222' 
TCOON,ioos:station:TCOON:518:1,2008-09-03T13:00:00Z,29.5150,-94.5133,0.0,6.0,248.0,7.4,'11111222,11111222,11111222' 
TCOON,ioos:station:TCOON:518:1,2008-09-03T14:00:00Z,29.5150,-94.5133,0.0,5.6,258.0,7.5,'11111222,11111222,11111222' 
TCOON,ioos:station:TCOON:518:1,2008-09-03T15:00:00Z,29.5150,-94.5133,0.0,6.0,254.0,7.4,'11111222,11111222,11111222' 
TCOON,ioos:station:TCOON:518:1,2008-09-03T16:00:00Z,29.5150,-94.5133,0.0,5.9,260.0,7.9,'11111222,11111222,11111222' 
TCOON,ioos:station:TCOON:518:1,2008-09-03T17:00:00Z,29.5150,-94.5133,0.0,5.3,253.0,6.6,'11111222,11111222,11111222' 
TCOON,ioos:station:TCOON:518:1,2008-09-03T18:00:00Z,29.5150,-94.5133,0.0,5.1,256.0,6.9,'11111222,11111222,11111222' 
TCOON,ioos:station:TCOON:518:1,2008-09-03T19:00:00Z,29.5150,-94.5133,0.0,4.1,265.0,6.6,'11111222,11111222,11111222' 
TCOON,ioos:station:TCOON:518:1,2008-09-03T20:00:00Z,29.5150,-94.5133,0.0,3.6,202.0,6.8,'11111222,11111222,11111222' 
TCOON,ioos:station:TCOON:518:1,2008-09-04T08:00:00Z,29.5150,-94.5133,0.0,3.8,335.0,4.4,'11111222,11111222,11111222' 
TCOON,ioos:station:TCOON:518:1,2008-09-04T09:00:00Z,29.5150,-94.5133,0.0,3.8,331.0,4.5,'11111222,11111222,11111222' 
TCOON,ioos:station:TCOON:518:1,2008-09-04T10:00:00Z,29.5150,-94.5133,0.0,3.5,338.0,4.2,'11111222,11111222,11111222' 
TCOON,ioos:station:TCOON:518:1,2008-09-04T11:00:00Z,29.5150,-94.5133,0.0,4.2,329.0,4.9,'11111222,11111222,11111222' 
TCOON,ioos:station:TCOON:518:1,2008-09-04T12:00:00Z,29.5150,-94.5133,0.0,5.9,317.0,6.8,'11111222,11111222,11111222' 
TCOON,ioos:station:TCOON:518:1,2008-09-04T15:00:00Z,29.5150,-94.5133,0.0,5.4,334.0,6.7,'11111222,11111222,11111222' 
TCOON,ioos:station:TCOON:518:1,2008-09-04T16:00:00Z,29.5150,-94.5133,0.0,3.7,305.0,4.5,'11111222,11111222,11111222' 
TCOON,ioos:station:TCOON:518:1,2008-09-04T17:00:00Z,29.5150,-94.5133,0.0,3.1,272.0,3.9,'11111222,11111222,11111222' 
TCOON,ioos:station:TCOON:518:1,2008-09-04T18:00:00Z,29.5150,-94.5133,0.0,5.3,303.0,6.2,'11111222,11111222,11111222' 
TCOON,ioos:station:TCOON:518:1,2008-09-04T19:00:00Z,29.5150,-94.5133,0.0,5.0,287.0,6.2,'11111222,11111222,11111222' 
TCOON,ioos:station:TCOON:518:1,2008-09-04T20:00:00Z,29.5150,-94.5133,0.0,4.5,289.0,5.6,'11111222,11111222,11111222' 
TCOON,ioos:station:TCOON:518:1,2008-09-05T03:00:00Z,29.5150,-94.5133,0.0,5.2,25.0,6.0,'11111222,11111222,11111222' 
TCOON,ioos:station:TCOON:518:1,2008-09-05T04:00:00Z,29.5150,-94.5133,0.0,4.8,46.0,6.1,'11111222,11111222,11111222' 
TCOON,ioos:station:TCOON:518:1,2008-09-05T05:00:00Z,29.5150,-94.5133,0.0,4.7,60.0,5.6,'11111222,11111222,11111222' 
TCOON,ioos:station:TCOON:518:1,2008-09-05T06:00:00Z,29.5150,-94.5133,0.0,3.5,45.0,4.0,'11111222,11111222,11111222' 
TCOON,ioos:station:TCOON:518:1,2008-09-05T07:00:00Z,29.5150,-94.5133,0.0,3.6,41.0,4.3,'11111222,11111222,11111222' 
TCOON,ioos:station:TCOON:518:1,2008-09-05T08:00:00Z,29.5150,-94.5133,0.0,3.6,18.0,4.0,'11111222,11111222,11111222' 
TCOON,ioos:station:TCOON:518:1,2008-09-05T09:00:00Z,29.5150,-94.5133,0.0,7.5,32.0,9.1,'11111222,11111222,11111222' 
TCOON,ioos:station:TCOON:518:1,2008-09-05T10:00:00Z,29.5150,-94.5133,0.0,5.9,31.0,7.2,'11111222,11111222,11111222' 
TCOON,ioos:station:TCOON:518:1,2008-09-05T11:00:00Z,29.5150,-94.5133,0.0,6.3,18.0,7.2,'11111222,11111222,11111222' 
TCOON,ioos:station:TCOON:518:1,2008-09-05T12:00:00Z,29.5150,-94.5133,0.0,4.4,8.0,5.2,'11111222,11111222,11111222' 
TCOON,ioos:station:TCOON:518:1,2008-09-05T13:00:00Z,29.5150,-94.5133,0.0,4.5,15.0,5.0,'11111222,11111222,11111222' 
TCOON,ioos:station:TCOON:518:1,2008-09-05T14:00:00Z,29.5150,-94.5133,0.0,4.6,21.0,5.3,'11111222,11111222,11111222' 
TCOON,ioos:station:TCOON:518:1,2008-09-05T15:00:00Z,29.5150,-94.5133,0.0,4.4,1.0,5.1,'11111222,11111222,11111222' 
TCOON,ioos:station:TCOON:518:1,2008-09-05T16:00:00Z,29.5150,-94.5133,0.0,3.5,11.0,4.1,'11111222,11111222,11111222' 
TCOON,ioos:station:TCOON:518:1,2008-09-05T17:00:00Z,29.5150,-94.5133,0.0,3.4,347.0,4.4,'11111222,11111222,11111222' 
TCOON,ioos:station:TCOON:518:1,2008-09-05T18:00:00Z,29.5150,-94.5133,0.0,3.6,356.0,5.2,'11111222,11111222,11111222' 
TCOON,ioos:station:TCOON:518:1,2008-09-05T19:00:00Z,29.5150,-94.5133,0.0,3.4,14.0,4.3,'11111222,11111222,11111222' 
TCOON,ioos:station:TCOON:518:1,2008-09-05T20:00:00Z,29.5150,-94.5133,0.0,4.2,26.0,5.1,'11111222,11111222,11111222' 
TCOON,ioos:station:TCOON:518:1,2008-09-05T21:00:00Z,29.5150,-94.5133,0.0,3.5,1.0,4.5,'11111222,11111222,11111222' 
TCOON,ioos:station:TCOON:518:1,2008-09-05T22:00:00Z,29.5150,-94.5133,0.0,5.0,7.0,5.6,'11111222,11111222,11111222' 
TCOON,ioos:station:TCOON:518:1,2008-09-05T23:00:00Z,29.5150,-94.5133,0.0,5.8,5.0,6.5,'11111222,11111222,11111222' 
TCOON,ioos:station:TCOON:518:1,2008-09-06T00:00:00Z,29.5150,-94.5133,0.0,4.5,30.0,18.2,'11111222,11111222,11111222' 
TCOON,ioos:station:TCOON:518:1,2008-09-06T01:00:00Z,29.5150,-94.5133,0.0,4.3,46.0,4.9,'11111222,11111222,11111222' 
TCOON,ioos:station:TCOON:518:1,2008-09-06T02:00:00Z,29.5150,-94.5133,0.0,4.0,47.0,4.7,'11111222,11111222,11111222' 
TCOON,ioos:station:TCOON:518:1,2008-09-06T03:00:00Z,29.5150,-94.5133,0.0,4.2,46.0,5.2,'11111222,11111222,11111222' 
TCOON,ioos:station:TCOON:518:1,2008-09-06T04:00:00Z,29.5150,-94.5133,0.0,5.3,38.0,6.1,'11111222,11111222,11111222' 
TCOON,ioos:station:TCOON:518:1,2008-09-06T05:00:00Z,29.5150,-94.5133,0.0,5.6,50.0,6.7,'11111222,11111222,11111222' 
TCOON,ioos:station:TCOON:518:1,2008-09-06T06:00:00Z,29.5150,-94.5133,0.0,5.6,45.0,7.0,'11111222,11111222,11111222' 
TCOON,ioos:station:TCOON:518:1,2008-09-06T07:00:00Z,29.5150,-94.5133,0.0,6.5,49.0,7.6,'11111222,11111222,11111222' 
TCOON,ioos:station:TCOON:518:1,2008-09-06T08:00:00Z,29.5150,-94.5133,0.0,6.3,52.0,7.8,'11111222,11111222,11111222' 
TCOON,ioos:station:TCOON:518:1,2008-09-06T09:00:00Z,29.5150,-94.5133,0.0,6.0,49.0,6.9,'11111222,11111222,11111222' 
TCOON,ioos:station:TCOON:518:1,2008-09-06T10:00:00Z,29.5150,-94.5133,0.0,6.1,35.0,6.7,'11111222,11111222,11111222' 
TCOON,ioos:station:TCOON:518:1,2008-09-06T11:00:00Z,29.5150,-94.5133,0.0,6.3,29.0,7.4,'11111222,11111222,11111222' 
TCOON,ioos:station:TCOON:518:1,2008-09-06T12:00:00Z,29.5150,-94.5133,0.0,6.1,37.0,7.1,'11111222,11111222,11111222' 
TCOON,ioos:station:TCOON:518:1,2008-09-06T13:00:00Z,29.5150,-94.5133,0.0,5.3,33.0,6.2,'11111222,11111222,11111222' 
TCOON,ioos:station:TCOON:518:1,2008-09-06T14:00:00Z,29.5150,-94.5133,0.0,5.2,34.0,6.1,'11111222,11111222,11111222' 
TCOON,ioos:station:TCOON:518:1,2008-09-06T15:00:00Z,29.5150,-94.5133,0.0,4.1,34.0,5.3,'11111222,11111222,11111222' 
TCOON,ioos:station:TCOON:518:1,2008-09-06T16:00:00Z,29.5150,-94.5133,0.0,3.0,1.0,3.7,'11111222,11111222,11111222' 
TCOON,ioos:station:TCOON:518:1,2008-09-06T17:00:00Z,29.5150,-94.5133,0.0,1.7,119.0,2.3,'11111222,11111222,11111222' 
TCOON,ioos:station:TCOON:518:1,2008-09-06T18:00:00Z,29.5150,-94.5133,0.0,3.2,127.0,4.0,'11111222,11111222,11111222' 
TCOON,ioos:station:TCOON:518:1,2008-09-06T19:00:00Z,29.5150,-94.5133,0.0,3.0,140.0,3.8,'11111222,11111222,11111222' 
TCOON,ioos:station:TCOON:518:1,2008-09-06T20:00:00Z,29.5150,-94.5133,0.0,3.6,125.0,4.6,'11111222,11111222,11111222' 
TCOON,ioos:station:TCOON:518:1,2008-09-06T21:00:00Z,29.5150,-94.5133,0.0,3.3,144.0,4.6,'11111222,11111222,11111222' 
TCOON,ioos:station:TCOON:518:1,2008-09-06T22:00:00Z,29.5150,-94.5133,0.0,4.0,135.0,4.7,'11111222,11111222,11111222' 
TCOON,ioos:station:TCOON:518:1,2008-09-06T23:00:00Z,29.5150,-94.5133,0.0,4.1,123.0,5.0,'11111222,11111222,11111222' 
TCOON,ioos:station:TCOON:518:1,2008-09-07T00:00:00Z,29.5150,-94.5133,0.0,3.2,109.0,3.7,'11111222,11111222,11111222' 
TCOON,ioos:station:TCOON:518:1,2008-09-07T01:00:00Z,29.5150,-94.5133,0.0,5.1,99.0,6.0,'11111222,11111222,11111222' 
TCOON,ioos:station:TCOON:518:1,2008-09-07T02:00:00Z,29.5150,-94.5133,0.0,4.8,105.0,6.1,'11111222,11111222,11111222' 
TCOON,ioos:station:TCOON:518:1,2008-09-07T03:00:00Z,29.5150,-94.5133,0.0,4.8,80.0,6.1,'11111222,11111222,11111222' 
TCOON,ioos:station:TCOON:518:1,2008-09-07T04:00:00Z,29.5150,-94.5133,0.0,4.2,61.0,4.6,'11111222,11111222,11111222' 
TCOON,ioos:station:TCOON:518:1,2008-09-07T05:00:00Z,29.5150,-94.5133,0.0,3.5,65.0,4.6,'11111222,11111222,11111222' 
TCOON,ioos:station:TCOON:518:1,2008-09-07T06:00:00Z,29.5150,-94.5133,0.0,5.0,85.0,6.1,'11111222,11111222,11111222' 
TCOON,ioos:station:TCOON:518:1,2008-09-07T07:00:00Z,29.5150,-94.5133,0.0,5.8,93.0,7.0,'11111222,11111222,11111222' 
TCOON,ioos:station:TCOON:518:1,2008-09-07T08:00:00Z,29.5150,-94.5133,0.0,3.6,51.0,4.0,'11111222,11111222,11111222' 
TCOON,ioos:station:TCOON:518:1,2008-09-07T09:00:00Z,29.5150,-94.5133,0.0,4.2,40.0,4.6,'11111222,11111222,11111222' 
TCOON,ioos:station:TCOON:518:1,2008-09-07T10:00:00Z,29.5150,-94.5133,0.0,4.5,50.0,5.0,'11111222,11111222,11111222' 
TCOON,ioos:station:TCOON:518:1,2008-09-07T11:00:00Z,29.5150,-94.5133,0.0,4.5,43.0,5.5,'11111222,11111222,11111222' 
TCOON,ioos:station:TCOON:518:1,2008-09-07T12:00:00Z,29.5150,-94.5133,0.0,5.3,27.0,6.3,'11111222,11111222,11111222' 
TCOON,ioos:station:TCOON:518:1,2008-09-07T13:00:00Z,29.5150,-94.5133,0.0,4.7,31.0,5.7,'11111222,11111222,11111222' 
TCOON,ioos:station:TCOON:518:1,2008-09-07T14:00:00Z,29.5150,-94.5133,0.0,5.7,38.0,6.4,'11111222,11111222,11111222' 
TCOON,ioos:station:TCOON:518:1,2008-09-07T15:00:00Z,29.5150,-94.5133,0.0,5.7,41.0,6.6,'11111222,11111222,11111222' 
TCOON,ioos:station:TCOON:518:1,2008-09-07T16:00:00Z,29.5150,-94.5133,0.0,5.1,68.0,6.3,'11111222,11111222,11111222' 
TCOON,ioos:station:TCOON:518:1,2008-09-07T17:00:00Z,29.5150,-94.5133,0.0,5.7,95.0,6.3,'11111222,11111222,11111222' 
TCOON,ioos:station:TCOON:518:1,2008-09-07T18:00:00Z,29.5150,-94.5133,0.0,5.2,101.0,6.1,'11111222,11111222,11111222' 
TCOON,ioos:station:TCOON:518:1,2008-09-07T19:00:00Z,29.5150,-94.5133,0.0,4.2,114.0,4.9,'11111222,11111222,11111222' 
TCOON,ioos:station:TCOON:518:1,2008-09-07T20:00:00Z,29.5150,-94.5133,0.0,5.4,103.0,6.9,'11111222,11111222,11111222' 
TCOON,ioos:station:TCOON:518:1,2008-09-07T21:00:00Z,29.5150,-94.5133,0.0,6.6,99.0,7.5,'11111222,11111222,11111222' 
TCOON,ioos:station:TCOON:518:1,2008-09-07T22:00:00Z,29.5150,-94.5133,0.0,5.9,96.0,7.2,'11111222,11111222,11111222' 
TCOON,ioos:station:TCOON:518:1,2008-09-07T23:00:00Z,29.5150,-94.5133,0.0,5.0,113.0,5.7,'11111222,11111222,11111222' 
TCOON,ioos:station:TCOON:518:1,2008-09-08T00:00:00Z,29.5150,-94.5133,0.0,4.1,126.0,4.9,'11111222,11111222,11111222' 
TCOON,ioos:station:TCOON:518:1,2008-09-08T01:00:00Z,29.5150,-94.5133,0.0,4.0,111.0,4.7,'11111222,11111222,11111222' 
TCOON,ioos:station:TCOON:518:1,2008-09-08T02:00:00Z,29.5150,-94.5133,0.0,3.1,129.0,3.7,'11111222,11111222,11111222' 
TCOON,ioos:station:TCOON:518:1,2008-09-08T03:00:00Z,29.5150,-94.5133,0.0,3.9,126.0,4.8,'11111222,11111222,11111222' 
TCOON,ioos:station:TCOON:518:1,2008-09-08T04:00:00Z,29.5150,-94.5133,0.0,4.9,119.0,5.7,'11111222,11111222,11111222' 
TCOON,ioos:station:TCOON:518:1,2008-09-08T05:00:00Z,29.5150,-94.5133,0.0,4.7,112.0,5.8,'11111222,11111222,11111222' 
TCOON,ioos:station:TCOON:518:1,2008-09-08T06:00:00Z,29.5150,-94.5133,0.0,4.9,106.0,5.7,'11111222,11111222,11111222' 
TCOON,ioos:station:TCOON:518:1,2008-09-08T07:00:00Z,29.5150,-94.5133,0.0,3.6,102.0,4.3,'11111222,11111222,11111222' 
TCOON,ioos:station:TCOON:518:1,2008-09-08T08:00:00Z,29.5150,-94.5133,0.0,3.3,19.0,3.7,'11111222,11111222,11111222' 
TCOON,ioos:station:TCOON:518:1,2008-09-08T09:00:00Z,29.5150,-94.5133,0.0,3.4,49.0,4.2,'11111222,11111222,11111222' 
TCOON,ioos:station:TCOON:518:1,2008-09-08T10:00:00Z,29.5150,-94.5133,0.0,3.7,40.0,4.1,'11111222,11111222,11111222' 
TCOON,ioos:station:TCOON:518:1,2008-09-08T11:00:00Z,29.5150,-94.5133,0.0,2.7,29.0,3.1,'11111222,11111222,11111222' 
TCOON,ioos:station:TCOON:518:1,2008-09-08T12:00:00Z,29.5150,-94.5133,0.0,2.6,23.0,3.0,'11111222,11111222,11111222' 
TCOON,ioos:station:TCOON:518:1,2008-09-08T13:00:00Z,29.5150,-94.5133,0.0,5.6,105.0,6.2,'11111222,11111222,11111222' 
TCOON,ioos:station:TCOON:518:1,2008-09-08T14:00:00Z,29.5150,-94.5133,0.0,5.3,108.0,5.9,'11111222,11111222,11111222' 
TCOON,ioos:station:TCOON:518:1,2008-09-08T15:00:00Z,29.5150,-94.5133,0.0,5.6,121.0,6.8,'11111222,11111222,11111222' 
TCOON,ioos:station:TCOON:518:1,2008-09-08T16:00:00Z,29.5150,-94.5133,0.0,5.4,146.0,6.2,'11111222,11111222,11111222' 
TCOON,ioos:station:TCOON:518:1,2008-09-08T17:00:00Z,29.5150,-94.5133,0.0,4.9,135.0,6.3,'11111222,11111222,11111222' 
TCOON,ioos:station:TCOON:518:1,2008-09-08T18:00:00Z,29.5150,-94.5133,0.0,3.9,127.0,13.3,'11111222,11111222,11111222' 
TCOON,ioos:station:TCOON:518:1,2008-09-08T19:00:00Z,29.5150,-94.5133,0.0,6.7,123.0,7.5,'11111222,11111222,11111222' 
TCOON,ioos:station:TCOON:518:1,2008-09-08T20:00:00Z,29.5150,-94.5133,0.0,6.1,128.0,28.6,'11111222,11111222,11111222' 
TCOON,ioos:station:TCOON:518:1,2008-09-08T21:00:00Z,29.5150,-94.5133,0.0,5.4,127.0,6.9,'11111222,11111222,11111222' 
TCOON,ioos:station:TCOON:518:1,2008-09-08T22:00:00Z,29.5150,-94.5133,0.0,7.0,135.0,8.2,'11111222,11111222,11111222' 
TCOON,ioos:station:TCOON:518:1,2008-09-08T23:00:00Z,29.5150,-94.5133,0.0,5.9,134.0,6.9,'11111222,11111222,11111222' 
TCOON,ioos:station:TCOON:518:1,2008-09-09T00:00:00Z,29.5150,-94.5133,0.0,5.9,143.0,7.3,'11111222,11111222,11111222' 
TCOON,ioos:station:TCOON:518:1,2008-09-09T01:00:00Z,29.5150,-94.5133,0.0,4.6,152.0,6.0,'11111222,11111222,11111222' 
TCOON,ioos:station:TCOON:518:1,2008-09-09T02:00:00Z,29.5150,-94.5133,0.0,3.6,143.0,4.5,'11111222,11111222,11111222' 
TCOON,ioos:station:TCOON:518:1,2008-09-09T03:00:00Z,29.5150,-94.5133,0.0,3.6,135.0,4.2,'11111222,11111222,11111222' 
TCOON,ioos:station:TCOON:518:1,2008-09-09T04:00:00Z,29.5150,-94.5133,0.0,3.4,126.0,3.8,'11111222,11111222,11111222' 
TCOON,ioos:station:TCOON:518:1,2008-09-09T05:00:00Z,29.5150,-94.5133,0.0,3.4,106.0,4.0,'11111222,11111222,11111222' 
TCOON,ioos:station:TCOON:518:1,2008-09-09T06:00:00Z,29.5150,-94.5133,0.0,3.3,78.0,3.8,'11111222,11111222,11111222' 
TCOON,ioos:station:TCOON:518:1,2008-09-09T07:00:00Z,29.5150,-94.5133,0.0,3.1,40.0,3.5,'11111222,11111222,11111222' 
TCOON,ioos:station:TCOON:518:1,2008-09-09T08:00:00Z,29.5150,-94.5133,0.0,3.7,41.0,4.0,'11111222,11111222,11111222' 
TCOON,ioos:station:TCOON:518:1,2008-09-09T09:00:00Z,29.5150,-94.5133,0.0,2.9,54.0,3.3,'11111222,11111222,11111222' 
TCOON,ioos:station:TCOON:518:1,2008-09-09T10:00:00Z,29.5150,-94.5133,0.0,2.4,29.0,2.7,'11111222,11111222,11111222' 
TCOON,ioos:station:TCOON:518:1,2008-09-09T11:00:00Z,29.5150,-94.5133,0.0,2.7,38.0,3.1,'11111222,11111222,11111222' 
TCOON,ioos:station:TCOON:518:1,2008-09-09T12:00:00Z,29.5150,-94.5133,0.0,3.1,27.0,3.6,'11111222,11111222,11111222' 
TCOON,ioos:station:TCOON:518:1,2008-09-09T13:00:00Z,29.5150,-94.5133,0.0,4.1,38.0,4.7,'11111222,11111222,11111222' 
TCOON,ioos:station:TCOON:518:1,2008-09-09T14:00:00Z,29.5150,-94.5133,0.0,5.0,35.0,5.8,'11111222,11111222,11111222' 
TCOON,ioos:station:TCOON:518:1,2008-09-09T15:00:00Z,29.5150,-94.5133,0.0,4.7,42.0,5.5,'11111222,11111222,11111222' 
TCOON,ioos:station:TCOON:518:1,2008-09-09T16:00:00Z,29.5150,-94.5133,0.0,3.5,87.0,4.2,'11111222,11111222,11111222' 
TCOON,ioos:station:TCOON:518:1,2008-09-09T17:00:00Z,29.5150,-94.5133,0.0,3.6,89.0,4.2,'11111222,11111222,11111222' 
TCOON,ioos:station:TCOON:518:1,2008-09-09T18:00:00Z,29.5150,-94.5133,0.0,5.4,116.0,6.0,'11111222,11111222,11111222' 
TCOON,ioos:station:TCOON:518:1,2008-09-09T19:00:00Z,29.5150,-94.5133,0.0,5.0,97.0,5.6,'11111222,11111222,11111222' 
TCOON,ioos:station:TCOON:518:1,2008-09-09T20:00:00Z,29.5150,-94.5133,0.0,5.2,113.0,6.2,'11111222,11111222,11111222' 
TCOON,ioos:station:TCOON:518:1,2008-09-09T21:00:00Z,29.5150,-94.5133,0.0,5.7,110.0,6.5,'11111222,11111222,11111222' 
TCOON,ioos:station:TCOON:518:1,2008-09-09T22:00:00Z,29.5150,-94.5133,0.0,5.5,109.0,6.5,'11111222,11111222,11111222' 
TCOON,ioos:station:TCOON:518:1,2008-09-09T23:00:00Z,29.5150,-94.5133,0.0,5.3,101.0,6.1,'11111222,11111222,11111222' 
TCOON,ioos:station:TCOON:518:1,2008-09-10T00:00:00Z,29.5150,-94.5133,0.0,4.5,112.0,5.0,'11111222,11111222,11111222' 
TCOON,ioos:station:TCOON:518:1,2008-09-10T01:00:00Z,29.5150,-94.5133,0.0,4.7,115.0,5.2,'11111222,11111222,11111222' 
TCOON,ioos:station:TCOON:518:1,2008-09-10T02:00:00Z,29.5150,-94.5133,0.0,4.1,120.0,4.5,'11111222,11111222,11111222' 
TCOON,ioos:station:TCOON:518:1,2008-09-10T03:00:00Z,29.5150,-94.5133,0.0,3.8,111.0,4.2,'11111222,11111222,11111222' 
TCOON,ioos:station:TCOON:518:1,2008-09-10T04:00:00Z,29.5150,-94.5133,0.0,3.1,91.0,3.7,'11111222,11111222,11111222' 
TCOON,ioos:station:TCOON:518:1,2008-09-10T05:00:00Z,29.5150,-94.5133,0.0,2.3,64.0,2.7,'11111222,11111222,11111222' 
TCOON,ioos:station:TCOON:518:1,2008-09-10T06:00:00Z,29.5150,-94.5133,0.0,2.2,34.0,2.6,'11111222,11111222,11111222' 
TCOON,ioos:station:TCOON:518:1,2008-09-10T07:00:00Z,29.5150,-94.5133,0.0,2.9,31.0,3.2,'11111222,11111222,11111222' 